This demonstration page uses our WeatherBlox Daily Observations layout. Learn more.

Left ArrowRight Arrow

34.16533, -84.80231

Hourly Observations for October 27, 2019

Temp ( °F °C ) Dew Point ( °F °C ) Humidity (%) Winds ( mph kmh ) Pressure ( in mb ) Visibility ( mi km ) Precip ( " mm )
12:17 am 00:17 Cloudy 71 21.7 67 19.4 87 87 VRB 5 7 29.83 1010 10 16 0.00 0.00
12:53 am 00:53 Mostly Cloudy 69 20.6 66 18.9 90 90 Calm 29.79 1009 10 16 0.00 0.00
1:10 am 01:10 Mostly Cloudy 68 20 64 17.8 87 87 VRB 3 6 29.83 1010 10 16 0.00 0.00
1:39 am 01:39 Cloudy 66 18.9 61 16.1 84 84 VRB 3 6 29.85 1011 10 16 0.00 0.00
1:53 am 01:53 Cloudy 65 18.3 60 15.6 84 84 Calm 29.83 1010 10 16 0.00 0.00
2:53 am 02:53 Partly Cloudy 63 17.2 59 15 87 87 Calm 29.86 1011 10 16 0.00 0.00
3:31 am 03:31 Mostly Cloudy 62 16.7 59 15 90 90 Calm 29.88 1012 10 16 0.00 0.00
3:53 am 03:53 Cloudy 63 17.2 59 15 87 87 Calm 29.86 1011 10 16 0.00 0.00
4:36 am 04:36 Cloudy 62 16.7 58 14.4 86 86 VRB 3 6 29.91 1013 10 16 0.00 0.00
4:45 am 04:45 Cloudy 62 16.7 58 14.4 86 86 VRB 3 6 29.91 1013 10 16 0.00 0.00
4:53 am 04:53 Cloudy 62 16.7 58 14.4 86 86 Calm 29.88 1012 10 16 0.00 0.00
5:00 am 05:00 Cloudy 62 16.7 57 13.9 84 84 Calm 29.91 1013 10 16 0.00 0.00
5:40 am 05:40 Mostly Cloudy 60 15.6 56 13.3 86 86 Calm 29.94 1014 10 16 0.00 0.00
5:53 am 05:53 Mostly Cloudy 59 15 56 13.3 90 90 Calm 29.90 1013 10 16 0.00 0.00
6:01 am 06:01 Mostly Clear 59 15 55 12.8 87 87 Calm 29.94 1014 10 16 0.00 0.00
6:53 am 06:53 Clear 56 13.3 54 12.2 93 93 Calm 29.91 1013 10 16 0.00 0.00
7:22 am 07:22 Mostly Cloudy 57 13.9 55 12.8 93 93 Calm 29.94 1014 10 16 0.00 0.00
7:51 am 07:51 Partly Cloudy 57 14 54 12 88 88 Calm 29.94 1014 10 16 0.00 0.00
7:53 am 07:53 Mostly Clear 56 13.3 54 12.2 93 93 Calm 29.93 1013 10 16 0.00 0.00
8:23 am 08:23 Mostly Cloudy 57 13.9 54 12.2 90 90 Calm 29.97 1015 10 16 0.00 0.00
8:53 am 08:53 Mostly Cloudy 58 14.4 54 12.2 87 87 Calm 29.95 1014 10 16 0.00 0.00
9:53 am 09:53 Sunny 61 16.1 54 12.2 78 78 VRB 5 7 29.97 1015 10 16 0.00 0.00
10:53 am 10:53 Mostly Sunny 64 17.8 53 11.7 68 68 VRB 5 7 29.98 1015 10 16 0.00 0.00
11:15 am 11:15 Mostly Cloudy 64 17.8 52 11.1 65 65 Calm 30.03 1017 10 16 0.00 0.00
11:53 am 11:53 Mostly Cloudy 65 18.3 52 11.1 63 63 VRB 5 7 29.99 1016 10 16 0.00 0.00
12:53 pm 12:53 Partly Cloudy 66 18.9 53 11.7 63 63 VRB 6 9 29.99 1016 10 16 0.00 0.00
1:09 pm 13:09 Mostly Cloudy 66 18.9 53 11.7 63 63 VRB 5 7 30.03 1017 10 16 0.00 0.00
1:53 pm 13:53 Mostly Cloudy 67 19.4 54 12.2 63 63 Calm 29.98 1015 10 16 0.00 0.00
2:10 pm 14:10 Partly Cloudy 68 20 53 11.7 59 59 Calm 30.00 1016 10 16 0.00 0.00
2:53 pm 14:53 Sunny 69 20.6 54 12.2 59 59 VRB 6 9 29.98 1015 10 16 0.00 0.00
3:53 pm 15:53 Sunny 70 21.1 54 12.2 57 57 VRB 3 6 29.97 1015 10 16 0.00 0.00
4:53 pm 16:53 Sunny 69 20.6 54 12.2 59 59 VRB 3 6 29.98 1015 10 16 0.00 0.00
5:53 pm 17:53 Sunny 67 19.4 54 12.2 63 63 Calm 29.98 1015 10 16 0.00 0.00
6:53 pm 18:53 Clear 64 17.8 55 12.8 73 73 Calm 29.99 1016 10 16 0.00 0.00
7:53 pm 19:53 Clear 59 15 55 12.8 87 87 Calm 30.00 1016 10 16 0.00 0.00
8:53 pm 20:53 Clear 58 14.4 54 12.2 87 87 Calm 30.01 1016 10 16 0.00 0.00
9:53 pm 21:53 Clear 56 13.3 53 11.7 90 90 Calm 30.02 1017 10 16 0.00 0.00
10:53 pm 22:53 Clear 55 12.8 53 11.7 93 93 Calm 30.03 1017 10 16 0.00 0.00
11:53 pm 23:53 Clear 54 12.2 52 11.1 93 93 Calm 30.02 1017 10 16 0.00 0.00

Powered by AerisWeather